Location: Newark
(47.5833°N, 8.1500°E)
Time: 12:07:22
(UTC+00:00)

Transit 2A - Pass Details

Date: 02 November 2020
Orbit: 595 x 964 km, 66.7° (Epoch: 27 November)

Event Time Altitude Azimuth Distance (km) Brightness Sun altitude
Rises 00:26:44 0° 233° (SW) 3,636 - -53.7°
Reaches altitude 10° 00:29:24 10° 239° (WSW) 2,698 - -53.4°
Maximum altitude 00:35:32 48° 313° (NW) 1,227 - -52.9°
Drops below altitude 10° 00:41:30 10° 27° (NNE) 2,614 - -52.3°
Exits shadow 00:42:26 - 30° (NNE) 2,939 9.5 -52.2°
Sets 00:44:04 0° 33° (NNE) 3,515 10.0 -52.0°
